Weather History for KOZR - April, 2012

Change the Weather History Date:

Tuesday, April 24, 2012

  Actual Average Record
Temperature  
Mean Temperature 58 °F -  
Max Temperature 73 °F 75 °F 88 °F (2011)
Min Temperature 42 °F 53 °F 42 °F (2005)
Degree Days  
Heating Degree Days 8    
Growing Degree Days 8 (Base 50)    
Moisture  
Dew Point 39 °F    
Average Humidity 50    
Maximum Humidity 76    
Minimum Humidity 29    
Precipitation  
Precipitation 0.00 in - - ()
Sea Level Pressure  
Sea Level Pressure 30.00 in    
Wind  
Wind Speed 8 mph (West)    
Max Wind Speed 15 mph    
Max Gust Speed 26 mph    
Visibility 10 miles    
Events      
Averages and records for this station are not official NWS values.
T = Trace of Precipitation, MM = Missing Value Source: NWS Daily Summary

Daily Weather History Graph

Daily Weather History Graph

Search for Another Location

Airport or City:

Trip Planner

Search our weather history database for the weather conditions in past years. The results will help you decide how hot, cold, wet, or windy it might be!

Date:

Astronomy

Apr. 24, 2012 Rise Set
Actual Time 6:04 AM CDT 7:17 PM CDT
Civil Twilight 5:39 AM CDT 7:43 PM CDT
Nautical Twilight 5:08 AM CDT 8:13 PM CDT
Astronomical Twilight 4:37 AM CDT 8:44 PM CDT
Moon 8:09 AM CDT (4/24) 10:27 PM CDT (4/24)
Length of Visible Light 14h 04m
Length of Day
13h 13m
Waxing Crescent, 10% of the Moon is Illuminated
Apr 24
Waxing Crescent
Apr 29
First Quarter
May 5
Full
May 12
Last Quarter
May 20
New

Hourly Weather History & Observations

Time (CDT) Temp. Windchill Dew Point Humidity Pressure Visibility Wind Dir Wind Speed Gust Speed Precip Events Conditions
12:55 AM 47.8 °F - 35.1 °F 61% 29.99 in 10.0 mi WNW 5.8 mph - N/A   Clear
1:55 AM 47.5 °F - 35.1 °F 62% 29.99 in 10.0 mi WNW 6.9 mph - N/A   Clear
2:55 AM 47.5 °F - 34.3 °F 60% 29.98 in 10.0 mi WNW 9.2 mph - N/A   Clear
3:55 AM 46.0 °F 41.4 °F 34.5 °F 64% 29.99 in 10.0 mi WNW 9.2 mph - N/A   Clear
4:55 AM 42.4 °F 38.8 °F 35.1 °F 75% 30.00 in 10.0 mi WNW 5.8 mph - N/A   Clear
5:55 AM 42.3 °F 40.5 °F 34.9 °F 75% 30.01 in 10.0 mi West 3.5 mph - N/A   Clear
6:55 AM 44.2 °F 41.8 °F 37.0 °F 76% 30.03 in 10.0 mi West 4.6 mph - N/A   Clear
7:55 AM 50.4 °F - 36.9 °F 60% 30.05 in 10.0 mi WNW 5.8 mph - N/A   Clear
8:55 AM 58.5 °F - 34.7 °F 41% 30.07 in 10.0 mi WNW 8.1 mph - N/A   Clear
9:55 AM 62.4 °F - 34.2 °F 35% 30.07 in 10.0 mi West 11.5 mph - N/A   Clear
10:55 AM 65.1 °F - 35.1 °F 33% 30.06 in 10.0 mi WNW 9.2 mph 20.7 mph N/A   Clear
11:55 AM 66.9 °F - 35.8 °F 32% 30.04 in 10.0 mi West 12.7 mph 17.3 mph N/A   Clear
12:55 PM 69.3 °F - 37.0 °F 31% 30.02 in 10.0 mi NW 15.0 mph - N/A   Clear
1:55 PM 70.9 °F - 38.7 °F 31% 30.00 in 10.0 mi West 15.0 mph 26.5 mph N/A   Clear
2:55 PM 72.1 °F - 39.2 °F 30% 29.98 in 10.0 mi WSW 15.0 mph 21.9 mph N/A   Clear
3:55 PM 73.0 °F - 40.1 °F 30% 29.96 in 10.0 mi WSW 11.5 mph 19.6 mph N/A   Clear
4:55 PM 72.9 °F - 38.8 °F 29% 29.95 in 10.0 mi West 6.9 mph - N/A   Clear
5:55 PM 72.0 °F - 41.5 °F 33% 29.95 in 10.0 mi West 6.9 mph - N/A   Clear
6:55 PM 66.6 °F - 45.3 °F 46% 29.95 in 10.0 mi SW 5.8 mph - N/A   Clear
7:55 PM 62.6 °F - 44.6 °F 52% 29.96 in 10.0 mi SW 4.6 mph - N/A   Clear
8:55 PM 60.8 °F - 45.9 °F 58% 29.98 in 10.0 mi South 9.2 mph - N/A   Clear
9:55 PM 59.5 °F - 45.9 °F 61% 30.00 in 10.0 mi SW 9.2 mph - N/A   Clear
10:55 PM 57.6 °F - 45.5 °F 64% 30.01 in 10.0 mi SW 9.2 mph - N/A   Clear
11:55 PM 55.8 °F - 45.3 °F 68% 30.01 in 10.0 mi SW 8.1 mph - N/A   Clear